Regional Weather Roundup
Issued by NWS

Home | Current Version | Previous Version | Graphics & Text | Print | Product List | Glossary On
Versions: 1 2 3 4 5 6 7 8 9 10 11 12 13 14 15 16 17 18 19 20 21 22 23 24 25 26 27 28 29 30 31 32 33 34 35 36 37 38 39 40 41 42 43 44 45 46 47 48 49 50
000
ASUS45 KBOI 270110
RWRID

IDAHO REGIONAL WEATHER ROUNDUP
NATIONAL WEATHER SERVICE BOISE ID
700 PM MDT FRI AUG 26 2016

NOTE: "FAIR" INDICATES FEW OR NO CLOUDS BELOW 12000 FEET
WITH NO SIGNIFICANT WEATHER AND/OR OBSTRUCTIONS TO VISIBILITY

IDZ012-014-270200-
SOUTHWEST IDAHO


CITY           SKY/WX    TMP DP  RH WIND       PRES   REMARKS
BOISE          SUNNY     84  30  14 NW9       29.91F
CALDWELL       SUNNY     85  39  19 NW6       29.89F
MOUNTAIN HOME  SUNNY     85  33  15 NW13      29.91S
$$

IDZ016-017-270200-
SOUTHCENTRAL IDAHO


CITY           SKY/WX    TMP DP  RH WIND       PRES   REMARKS
BURLEY         MOSUNNY   74  39  28 W10       29.97F
JEROME         SUNNY     78  32  18 SW10      29.98F
TWIN FALLS     SUNNY     78  30  17 NW8       29.99F
$$

IDZ019>023-270200-
SOUTHEAST IDAHO


CITY           SKY/WX    TMP DP  RH WIND       PRES   REMARKS
IDAHO FALLS    SUNNY     75  32  20 S14       29.99S
POCATELLO      CLOUDY    75  28  17 SW16      30.00S
REXBURG        SUNNY     74  33  22 S10       29.98F
$$

IDZ006-010-011-018-031-032-270200-
CENTRAL IDAHO MOUNTAINS


CITY           SKY/WX    TMP DP  RH WIND       PRES   REMARKS
MCCALL         SUNNY     76  25  15 NW10      30.03S
STANLEY          N/A     69  28  21 NW6       30.09S
SALMON         SUNNY     77  37  24 CALM      29.90S
CHALLIS        MOSUNNY   76  26  15 SE5       29.95F
$$

IDZ002-004-006-007-026-270200-
NORTHERN IDAHO


CITY           SKY/WX    TMP DP  RH WIND       PRES   REMARKS
LEWISTON       PTSUNNY   89  36  15 NW8       29.83F
LOWELL           N/A     74  47  38 CALM      29.86S
COEUR D`ALENE  PTSUNNY   82  37  20 MISG      29.85S
MULLAN PASS    PTSUNNY   63  31  30 CALM      30.08S
$$



USA.gov is the U.S. government's official web portal to all federal, state and local government web resources and services.